This is the latest recevied weather packets stored in our database for station/object K2RMB. If no packets are shown the sender has not sent any weather packets the latest 10 day(s).
| Time | Temp. | Humidity | Pressure | Rain* | Wind** | Luminosity | Snow |
|---|---|---|---|---|---|---|---|
| 1777831087 | 7.78° C | 44% | 1010.1 hPa | 0 mm | - | 347 W/m² | - |
| 1777830786 | 7.78° C | 43% | 1010.1 hPa | 0 mm | - | 349 W/m² | - |
| 1777830486 | 7.78° C | 45% | 1010.1 hPa | 0 mm | - | 222 W/m² | - |
| 1777830184 | 7.78° C | 42% | 1010.1 hPa | 0 mm | - | 278 W/m² | - |
| 1777829880 | 7.78° C | 43% | 1010.1 hPa | 0 mm | - | 344 W/m² | - |
| 1777829575 | 7.78° C | 44% | 1010.1 hPa | 0 mm | - | 355 W/m² | - |
| 1777829273 | 7.78° C | 45% | 1010.1 hPa | 0 mm | - | 424 W/m² | - |
| 1777828970 | 7.78° C | 46% | 1010.1 hPa | 0 mm | - | 391 W/m² | - |
| 1777828666 | 7.22° C | 44% | 1010.1 hPa | 0 mm | - | 298 W/m² | - |
| 1777828363 | 7.22° C | 45% | 1010.1 hPa | 0 mm | - | 313 W/m² | - |
| 1777828060 | 7.22° C | 46% | 1009.8 hPa | 0 mm | - | 217 W/m² | - |
| 1777827757 | 7.22° C | 46% | 1009.8 hPa | 0 mm | - | 185 W/m² | - |
| 1777827454 | 7.22° C | 50% | 1009.8 hPa | 0 mm | - | 169 W/m² | - |
| 1777827151 | 7.22° C | 47% | 1009.8 hPa | 0 mm | - | 206 W/m² | - |
| 1777826847 | 7.22° C | 51% | 1009.8 hPa | 0 mm | - | 501 W/m² | - |
| 1777826545 | 7.22° C | 49% | 1010.1 hPa | 0 mm | - | 286 W/m² | - |
| 1777826241 | 7.22° C | 49% | 1009.8 hPa | 0 mm | - | 304 W/m² | - |
| 1777825939 | 7.22° C | 49% | 1010.1 hPa | 0 mm | - | 281 W/m² | - |
| 1777825635 | 6.67° C | 52% | 1010.1 hPa | 0 mm | - | 240 W/m² | - |
| 1777825334 | 6.67° C | 52% | 1010.1 hPa | 0 mm | - | 222 W/m² | - |
| 1777825030 | 6.67° C | 53% | 1010.1 hPa | 0 mm | - | 183 W/m² | - |
| 1777824726 | 6.67° C | 53% | 1010.1 hPa | 0 mm | - | 132 W/m² | - |
| 1777824424 | 6.67° C | 52% | 1010.1 hPa | 0 mm | - | 99 W/m² | - |
| 1777824119 | 6.67° C | 52% | 1010.1 hPa | 0 mm | - | 112 W/m² | - |
| 1777823815 | 6.67° C | 53% | 1010.1 hPa | 0 mm | - | 148 W/m² | - |
* Rain latest hour (hover to see other rain measurements)
** Current wind speed in m/s (hover to see current wind gust speed)